CW1084 Weather Reports


Display with metric or nautical units.
time (UTC)temp
F
wind
direction
speed
MPH
gust
MPH
rain 1hr
in
rain 24hr
in
rain mn
in
humidity
%
barometer
mb
20260510125607 63 205 0.0 2.0 0.00 0.00 0.00 100 1010.7
20260510120035 63 204 0.0 3.0 0.00 0.00 0.00 100 1009.9
20260510110402 63 169 0.0 1.0 0.00 0.00 0.00 100 1009.3
20260510102708 63 166 0.0 1.0 0.00 0.00 0.00 100 1008.9
20260510092649 63 166 0.0 0.0 0.00 0.00 0.00 100 1008.6
20260510091041 64 166 0.0 2.0 0.00 0.00 0.00 100 1008.7
20260510070856 63 164 0.0 0.0 0.00 0.00 0.00 100 1008.7
20260510050529 62 164 0.0 0.0 0.00 0.00 0.00 100 1008.6
20260510024443 62 164 0.0 0.0 0.00 0.00 0.00 100 1008.3
20260510022418 63 164 0.0 0.0 0.00 0.00 0.00 100 1008.2
20260510021739 63 164 0.0 0.0 0.00 0.00 0.00 100 1008.0
20260510021118 63 164 0.0 0.0 0.00 0.00 0.00 100 1008.0
20260510021103 63 164 0.0 0.0 0.00 0.00 0.00 100 1007.9
20260510020436 63 164 0.0 0.0 0.00 0.00 0.00 100 1007.9
20260510015733 63 164 0.0 0.0 0.00 0.00 0.00 100 1007.8
20260510015027 63 164 0.0 0.0 0.00 0.00 0.00 100 1007.9
20260510014516 63 164 0.0 0.0 0.00 0.00 0.00 100 1007.8
20260510014210 63 164 0.0 0.0 0.00 0.00 0.00 100 1007.9
20260510013743 64 164 0.0 0.0 0.00 0.00 0.00 100 1007.7
20260510013642 64 164 0.0 0.0 0.00 0.00 0.00 100 1007.9
20260510013554 63 164 0.0 0.0 0.00 0.00 0.00 100 1007.8
20260510013021 63 164 0.0 0.0 0.00 0.00 0.00 100 1007.8
20260510012219 64 164 0.0 0.0 0.00 0.00 0.00 100 1007.5
20260510012125 64 164 0.0 0.0 0.00 0.00 0.00 100 1007.8
20260510011615 64 164 0.0 0.0 0.00 0.00 0.00 100 1007.7
20260510010851 64 164 0.0 0.0 0.00 0.00 0.00 100 1007.6
20260510010056 64 164 0.0 0.0 0.00 0.00 0.00 1 1007.5
20260510005418 64 164 0.0 0.0 0.00 0.00 0.00 5 1007.5
20260510004855 64 164 0.0 0.0 0.00 0.00 0.00 9 1007.5
20260510004613 64 164 0.0 0.0 0.00 0.00 0.00 12 1007.4
20260510003932 64 164 0.0 0.0 0.00 0.00 0.00 16 1007.3
20260510003453 65 164 0.0 0.0 0.00 0.00 0.00 27 1007.3
20260510003422 65 164 0.0 0.0 0.00 0.00 0.00 24 1007.3
20260510003354 65 164 0.0 0.0 0.00 0.00 0.00 20 1007.3
20260510001919 65 164 0.0 0.0 0.00 0.00 0.00 32 1007.2
20260510001851 65 164 0.0 0.0 0.00 0.00 0.00 30 1007.2
20260510001249 65 164 0.0 0.0 0.00 0.00 0.00 33 1007.1
20260510000428 65 164 0.0 0.0 0.00 0.00 0.00 35 1007.1
20260510000003 66 164 0.0 2.0 0.00 0.00 0.00 37 1007.0
20260509235839 65 164 0.0 0.0 0.00 0.00 0.00 36 1007.1
20260509235328 66 164 0.0 0.0 0.00 0.00 0.00 36 1007.0
20260509234535 66 164 0.0 2.0 0.00 0.00 0.00 38 1007.0
20260509234326 66 164 0.0 2.0 0.00 0.00 0.00 37 1007.1
20260509233908 67 164 1.0 8.0 0.00 0.00 0.00 38 1006.9
20260509233805 66 164 0.0 2.0 0.00 0.00 0.00 37 1007.0
20260509232932 66 164 0.0 5.0 0.00 0.00 0.00 38 1007.0
20260509231616 67 165 1.0 8.0 0.00 0.00 0.00 38 1006.9
20260509231114 67 152 0.0 5.0 0.00 0.00 0.00 38 1006.9
20260509231031 67 150 0.0 7.0 0.00 0.00 0.00 38 1006.9
20260509230152 67 175 0.0 7.0 0.00 0.00 0.00 38 1006.9
20260509225607 67 176 0.0 4.0 0.00 0.00 0.00 38 1006.9
20260509225046 67 175 0.0 4.0 0.00 0.00 0.00 37 1007.0
20260509224547 67 176 0.0 5.0 0.00 0.00 0.00 37 1007.1
20260509224056 68 177 0.0 5.0 0.00 0.00 0.00 37 1007.1
20260509223547 68 179 0.0 4.0 0.00 0.00 0.00 36 1007.1
20260509223042 68 181 1.0 5.0 0.00 0.00 0.00 36 1007.1
20260509222537 68 181 1.0 9.0 0.00 0.00 0.00 36 1007.2
20260509222320 68 187 1.0 9.0 0.00 0.00 0.00 36 1007.2
20260509221532 68 134 1.0 6.0 0.00 0.00 0.00 36 1007.1
20260509221101 68 127 1.0 8.0 0.00 0.00 0.00 36 1007.2
20260509220526 69 146 1.0 8.0 0.00 0.00 0.00 37 1007.1
20260509220301 69 158 1.0 8.0 0.00 0.00 0.00 37 1007.1
20260509215518 69 154 1.0 8.0 0.00 0.00 0.00 37 1007.1
20260509215015 69 148 1.0 8.0 0.00 0.00 0.00 38 1007.0
20260509214623 70 171 1.0 9.0 0.00 0.00 0.00 39 1007.0
20260509214531 70 150 1.0 8.0 0.00 0.00 0.00 38 1007.0
20260509213503 70 120 1.0 11.0 0.00 0.00 0.00 39 1006.9
20260509213008 70 157 1.0 11.0 0.00 0.00 0.00 39 1007.0
20260509212502 70 178 1.0 7.0 0.00 0.00 0.00 39 1007.0
20260509212030 70 180 1.0 9.0 0.00 0.00 0.00 39 1006.9
20260509211501 70 148 1.0 9.0 0.00 0.00 0.00 39 1006.9
20260509210951 70 163 1.0 9.0 0.00 0.00 0.00 39 1006.9
20260509210212 69 162 1.0 9.0 0.00 0.00 0.00 39 1006.8
20260509205641 69 163 1.0 6.0 0.00 0.00 0.00 40 1006.8
20260509205338 68 146 1.0 6.0 0.00 0.00 0.00 40 1006.8
20260509204601 68 153 1.0 7.0 0.00 0.00 0.00 40 1006.7
20260509203944 68 160 0.0 6.0 0.00 0.00 0.00 41 1006.9
20260509203415 68 114 1.0 6.0 0.00 0.00 0.00 42 1007.0
20260509202858 68 189 0.0 6.0 0.00 0.00 0.00 43 1007.0
20260509202325 68 136 0.0 8.0 0.00 0.00 0.00 42 1007.0
20260509201745 69 156 0.0 5.0 0.00 0.00 0.00 42 1007.1
20260509201427 69 155 0.0 5.0 0.00 0.00 0.00 43 1007.1
20260509200558 69 155 1.0 7.0 0.00 0.00 0.00 42 1007.1
20260509200024 69 155 1.0 7.0 0.00 0.00 0.00 42 1007.1
20260509195823 70 133 1.0 7.0 0.00 0.00 0.00 42 1007.3
20260509195628 70 133 1.0 7.0 0.00 0.00 0.00 42 1007.3
20260509195152 70 112 1.0 7.0 0.00 0.00 0.00 41 1007.4
20260509194313 70 248 0.0 7.0 0.00 0.00 0.00 41 1007.5
20260509193747 71 163 1.0 7.0 0.00 0.00 0.00 41 1007.6
20260509193242 71 118 1.0 5.0 0.00 0.00 0.00 40 1007.6
20260509192710 71 178 1.0 9.0 0.00 0.00 0.00 40 1007.7
20260509192017 71 206 1.0 8.0 0.00 0.00 0.00 39 1007.8
20260509191519 71 176 1.0 8.0 0.00 0.00 0.00 40 1007.7
20260509191139 71 153 1.0 8.0 0.00 0.00 0.00 43 1008.1
20260509191100 70 158 1.0 8.0 0.00 0.00 0.00 42 1008.1
20260509190933 71 143 1.0 8.0 0.00 0.00 0.00 41 1007.7
20260509185428 72 148 1.0 10.0 0.00 0.00 0.00 42 1008.2
20260509184635 73 149 2.0 10.0 0.00 0.00 0.00 42 1008.2
20260509184108 73 132 1.0 7.0 0.00 0.00 0.00 41 1008.3
20260509183537 73 156 1.0 9.0 0.00 0.00 0.00 41 1008.3
20260509183233 74 147 1.0 7.0 0.00 0.00 0.00 40 1008.3
20260509183013 74 147 1.0 7.0 0.00 0.00 0.00 40 1008.3
20260509182443 74 179 1.0 7.0 0.00 0.00 0.00 39 1008.3
20260509182252 73 205 1.0 7.0 0.00 0.00 0.00 38 1008.5
20260509181342 72 153 0.0 7.0 0.00 0.00 0.00 37 1008.5
20260509180815 72 173 0.0 5.0 0.00 0.00 0.00 36 1008.6
20260509180258 71 172 1.0 7.0 0.00 0.00 0.00 36 1008.7
20260509175944 70 173 1.0 7.0 0.00 0.00 0.00 37 1008.9
20260509175353 69 173 1.0 5.0 0.00 0.00 0.00 37 1008.9
20260509174617 69 168 0.0 4.0 0.00 0.00 0.00 37 1008.8
20260509174220 69 189 0.0 5.0 0.00 0.00 0.00 36 1008.9
20260509174110 69 189 0.0 3.0 0.00 0.00 0.00 36 1008.7
20260509173234 69 190 0.0 5.0 0.00 0.00 0.00 37 1009.0
20260509172404 69 196 0.0 2.0 0.00 0.01 0.00 39 1009.0
20260509171826 69 196 0.0 1.0 0.00 0.01 0.00 40 1009.1
20260509171253 69 196 0.0 6.0 0.00 0.01 0.00 42 1009.1
20260509170736 70 198 1.0 6.0 0.00 0.01 0.00 43 1009.1
20260509170154 70 199 2.0 8.0 0.00 0.01 0.00 45 1009.1
20260509165616 71 161 1.0 8.0 0.00 0.01 0.00 45 1009.1
20260509165049 72 155 0.0 7.0 0.00 0.01 0.00 45 1009.1
20260509164523 72 149 1.0 9.0 0.00 0.01 0.00 43 1009.0
20260509164215 71 146 1.0 9.0 0.00 0.01 0.00 43 1009.0
20260509163422 71 160 1.0 5.0 0.00 0.01 0.00 43 1009.2
20260509163019 71 199 1.0 7.0 0.00 0.01 0.00 43 1009.2
20260509162307 71 187 0.0 7.0 0.00 0.01 0.00 43 1009.2
20260509161739 71 187 1.0 6.0 0.00 0.01 0.00 43 1009.4
20260509161657 71 251 1.0 6.0 0.00 0.01 0.00 42 1009.4
20260509161214 71 251 1.0 6.0 0.00 0.01 0.00 42 1009.4
20260509160855 71 282 1.0 10.0 0.00 0.01 0.00 42 1009.4
20260509160557 71 175 1.0 10.0 0.00 0.01 0.00 41 1009.5
20260509155540 71 195 1.0 9.0 0.00 0.01 0.00 41 1009.6
20260509155010 71 206 1.0 9.0 0.00 0.01 0.00 41 1009.5
20260509154709 71 228 1.0 8.0 0.00 0.01 0.00 40 1009.5
20260509154158 71 184 1.0 8.0 0.00 0.01 0.00 40 1009.5
20260509153944 71 184 1.0 8.0 0.00 0.01 0.00 40 1009.5
20260509153353 70 185 1.0 8.0 0.00 0.01 0.00 39 1009.3
20260509152819 69 186 1.0 8.0 0.00 0.01 0.00 39 1009.6
20260509152254 69 161 1.0 9.0 0.00 0.01 0.00 39 1009.7
20260509151729 69 157 1.0 9.0 0.00 0.01 0.00 39 1010.0
20260509151201 69 253 0.0 4.0 0.00 0.01 0.00 38 1010.0
20260509150634 69 253 0.0 6.0 0.00 0.01 0.00 38 1010.2
20260509150334 68 254 1.0 6.0 0.00 0.01 0.00 37 1010.3
20260509145528 68 253 1.0 10.0 0.00 0.01 0.00 37 1010.4
20260509145000 68 218 1.0 10.0 0.00 0.01 0.00 36 1010.5
20260509144706 67 147 1.0 8.0 0.00 0.01 0.00 36 1010.5
20260509143838 67 164 1.0 9.0 0.00 0.01 0.00 35 1010.5
20260509143313 67 207 1.0 9.0 0.00 0.01 0.00 35 1010.7
20260509143215 66 170 2.0 9.0 0.00 0.01 0.00 34 1010.6
20260509142210 66 152 1.0 9.0 0.00 0.01 0.00 34 1010.7
20260509141639 66 180 0.0 5.0 0.00 0.01 0.00 33 1010.7
20260509141108 66 180 0.0 5.0 0.00 0.01 0.00 33 1010.9
20260509140532 66 257 0.0 8.0 0.00 0.01 0.00 33 1010.9
20260509140000 66 257 0.0 1.0 0.00 0.01 0.00 32 1010.8
20260509135433 65 257 1.0 9.0 0.00 0.01 0.00 32 1010.9
20260509134859 65 154 1.0 8.0 0.00 0.01 0.00 30 1010.9
20260509134249 65 198 1.0 9.0 0.00 0.01 0.00 28 1010.9
20260509133727 65 173 1.0 8.0 0.00 0.01 0.00 27 1010.9
20260509133149 65 169 0.0 7.0 0.00 0.01 0.00 26 1011.0
20260509132835 64 225 0.0 5.0 0.00 0.01 0.00 25 1010.9
20260509132048 64 182 1.0 7.0 0.00 0.01 0.00 24 1010.9
20260509131528 64 187 1.0 7.0 0.00 0.01 0.00 23 1010.8
20260509131002 63 223 0.0 6.0 0.00 0.01 0.00 21 1010.9